Location: Votelez
(50.0000°N, 15.0000°E)
Time: 05:20:16
(UTC+01:00)

ARIANE 6 FM1 Upper Stage - Pass Details

Date: 23 February 2026
Orbit: 523 x 607 km, 62.0° (Epoch: 11 March)

Event Time Altitude Azimuth Distance (km) Brightness Sun altitude
Rises 18:38:19 0° 297° (WNW) 2,658 7.3 -11.4°
Reaches altitude 10° 18:42:20 10° 257° (WSW) 1,767 6.6 -12.0°
Maximum altitude 18:43:05 10° 246° (WSW) 1,739 6.3 -12.1°
Drops below altitude 10° 18:43:50 10° 235° (SW) 1,768 6.1 -12.3°
Sets 18:47:51 0° 194° (SSW) 2,665 6.3 -12.9°
